GW0126 Weather Reports


Display with metric or nautical units.
time (UTC)temp
F
wind
direction
speed
MPH
gust
MPH
rain 1hr
in
rain 24hr
in
rain mn
in
humidity
%
barometer
mb
20260831225242 59 284 0.0 1.0 0.00 0.00 0.00 93 1012.7
20260831224259 59 221 1.0 1.0 0.00 0.00 0.00 92 1012.7
20260831223712 59 175 1.0 3.0 0.00 0.00 0.00 91 1012.8
20260831223240 59 208 1.0 1.0 0.00 0.00 0.00 91 1012.4
20260831222653 59 198 0.0 1.0 0.00 0.00 0.00 91 1012.6
20260831222220 60 220 1.0 1.0 0.00 0.00 0.00 91 1012.5
20260831221633 60 197 0.0 1.0 0.00 0.00 0.00 91 1012.4
20260831221121 60 196 0.0 2.0 0.00 0.00 0.00 91 1012.5
20260831215551 60 108 1.0 2.0 0.00 0.00 0.10 91 1012.7
20260831215042 60 251 1.0 1.0 0.00 0.00 0.10 91 1012.4
20260831214531 60 193 1.0 2.0 0.00 0.00 0.10 91 1012.4
20260831214100 60 227 0.0 2.0 0.00 0.00 0.10 92 1012.5
20260831213511 60 173 0.0 2.0 0.00 0.00 0.10 92 1012.4
20260831213001 60 209 0.0 1.0 0.00 0.00 0.10 92 1012.7
20260831212453 60 165 0.0 1.0 0.00 0.00 0.10 93 1012.4
20260831211431 60 204 0.0 1.0 0.00 0.00 0.10 94 1012.4
20260831210411 60 211 0.0 0.0 0.00 0.00 0.10 94 1012.4
20260831205351 60 193 0.0 1.0 0.00 0.00 0.10 94 1012.1
20260831204409 60 204 0.0 0.0 0.00 0.00 0.10 94 1011.8
20260831203433 60 201 0.0 1.0 0.00 0.00 0.10 94 1011.7
20260831202801 60 252 0.0 1.0 0.00 0.00 0.10 94 1011.7
20260831202330 60 198 0.0 1.0 0.00 0.00 0.10 94 1011.6
20260831201743 60 204 0.0 1.0 0.00 0.00 0.10 94 1011.7
20260831201231 60 200 0.0 0.0 0.00 0.00 0.10 93 1011.6
20260831200721 60 194 0.0 0.0 0.00 0.00 0.10 93 1011.6
20260831200211 60 205 0.0 1.0 0.00 0.00 0.10 93 1011.6
20260831195229 60 200 0.0 0.0 0.00 0.00 0.10 92 1011.2
20260831194131 60 224 0.0 1.0 0.00 0.00 0.10 92 1011.5
20260831193111 60 201 1.0 1.0 0.00 0.00 0.10 95 1011.4
20260831192601 60 201 1.0 1.0 0.00 0.00 0.10 95 1011.4
20260831192129 60 164 0.0 1.0 0.00 0.00 0.10 95 1011.4
20260831191541 60 196 0.0 0.0 0.01 0.00 0.10 94 1011.3
20260831191031 60 182 1.0 1.0 0.02 0.00 0.10 94 1011.3
20260831190521 60 200 0.0 1.0 0.03 0.00 0.10 94 1011.1
20260831185502 61 175 0.0 0.0 0.03 0.00 0.10 93 1011.0
20260831184951 61 193 0.0 1.0 0.03 0.00 0.10 93 1011.0
20260831184009 61 186 0.0 1.0 0.03 0.00 0.10 92 1011.2
20260831183421 62 201 1.0 2.0 0.03 0.00 0.10 92 1011.2
20260831181419 65 207 0.0 2.0 0.01 0.00 0.08 85 1011.1
20260831180831 65 24 1.0 3.0 0.00 0.00 0.07 83 1011.3
20260831180321 65 167 3.0 6.0 0.00 0.00 0.07 82 1011.4
20260831175849 64 282 2.0 3.0 0.00 0.00 0.07 85 1011.4
20260831174751 64 189 1.0 2.0 0.00 0.00 0.07 86 1010.9
20260831173221 64 197 0.0 2.0 0.00 0.00 0.07 86 1010.5
20260831172201 64 162 0.0 1.0 0.00 0.00 0.07 85 1010.6
20260831171142 64 169 1.0 1.0 0.02 0.00 0.07 83 1010.4
20260831170243 68 82 2.0 6.0 0.02 0.00 0.07 75 1010.6
20260831165101 68 192 1.0 2.0 0.02 0.00 0.07 78 1010.2
20260831164551 68 158 0.0 1.0 0.02 0.00 0.07 81 1009.7
20260831162549 74 170 2.0 2.0 0.02 0.00 0.07 74 1009.5
20260831162039 74 198 0.0 1.0 0.00 0.00 0.05 62 1009.5
20260831161450 75 179 0.0 1.0 0.00 0.00 0.05 60 1009.5
20260831160940 75 220 0.0 2.0 0.00 0.00 0.05 56 1009.6
20260831160431 76 128 1.0 2.0 0.00 0.00 0.05 55 1009.5
20260831155410 77 190 1.0 2.0 0.00 0.00 0.05 57 1009.6
20260831154900 76 273 2.0 6.0 0.00 0.00 0.05 57 1009.8
20260831154353 75 223 0.0 2.0 0.00 0.00 0.05 59 1009.6
20260831153840 75 49 1.0 2.0 0.00 0.00 0.05 59 1009.7
20260831152310 76 170 3.0 3.0 0.00 0.00 0.05 58 1009.8
20260831151838 77 3 2.0 7.0 0.00 0.00 0.05 57 1009.7
20260831151250 76 196 0.0 2.0 0.00 0.00 0.05 60 1009.8
20260831150818 75 206 1.0 3.0 0.00 0.00 0.05 61 1009.8
20260831145210 79 301 3.0 3.0 0.00 0.00 0.05 53 1009.8
20260831144700 80 148 2.0 4.0 0.00 0.00 0.05 53 1009.8
20260831143130 79 181 2.0 6.0 0.00 0.00 0.05 56 1009.7
20260831142620 80 293 1.0 2.0 0.00 0.00 0.05 53 1009.6
20260831142149 80 318 3.0 4.0 0.00 0.00 0.05 54 1009.6
20260831141600 79 107 3.0 6.0 0.00 0.00 0.05 56 1009.5
20260831141050 79 220 2.0 6.0 0.00 0.00 0.05 55 1009.8
20260831140540 78 162 1.0 4.0 0.00 0.00 0.05 57 1009.9
20260831140030 78 169 3.0 6.0 0.00 0.00 0.05 58 1009.9
20260831135520 78 186 2.0 3.0 0.00 0.00 0.05 61 1009.9
20260831135010 76 261 2.0 6.0 0.00 0.00 0.05 63 1010.0
20260831132930 74 135 2.0 4.0 0.00 0.00 0.05 68 1010.2
20260831131524 71 304 2.0 2.0 0.00 0.00 0.05 77 1009.9
20260831130420 73 216 1.0 3.0 0.00 0.00 0.05 73 1010.1
20260831125830 75 341 2.0 3.0 0.00 0.00 0.05 66 1010.2
20260831125320 76 160 1.0 4.0 0.00 0.00 0.05 63 1010.1
20260831124811 77 297 2.0 3.0 0.00 0.00 0.05 61 1010.0
20260831124300 79 317 2.0 3.0 0.00 0.00 0.05 60 1010.0
20260831123750 78 208 1.0 6.0 0.00 0.00 0.05 60 1010.2
20260831123240 77 193 2.0 3.0 0.00 0.00 0.05 61 1010.4
20260831122258 79 26 2.0 3.0 0.00 0.00 0.05 58 1010.1
20260831121201 77 156 2.0 3.0 0.00 0.00 0.05 63 1010.6
20260831120728 77 169 3.0 4.0 0.00 0.00 0.05 63 1010.2
20260831120140 77 214 2.0 3.0 0.00 0.00 0.05 64 1010.2
20260831115630 76 216 0.0 3.0 0.00 0.00 0.05 65 1010.2
20260831115242 76 186 0.0 3.0 0.00 0.00 0.05 65 1010.2
20260831114649 75 111 2.0 3.0 0.00 0.00 0.05 65 1010.4
20260831114100 75 303 2.0 6.0 0.00 0.00 0.05 65 1010.3
20260831113712 75 153 1.0 8.0 0.00 0.00 0.05 65 1010.3
20260831113040 76 105 1.0 4.0 0.00 0.00 0.05 65 1010.4
20260831112529 76 178 1.0 4.0 0.00 0.00 0.05 66 1010.6
20260831112143 76 196 0.0 4.0 0.00 0.00 0.05 66 1010.5
20260831111509 75 143 1.0 3.0 0.00 0.00 0.05 65 1010.8
20260831111000 76 156 4.0 4.0 0.00 0.00 0.05 66 1010.4
20260831110449 76 241 1.0 3.0 0.00 0.00 0.05 65 1010.3
20260831105939 76 183 4.0 6.0 0.00 0.00 0.05 65 1010.6
20260831103428 76 5 2.0 4.0 0.00 0.00 0.05 65 1010.6
20260831102840 76 232 2.0 6.0 0.00 0.00 0.05 67 1010.7
20260831102329 75 171 1.0 4.0 0.00 0.00 0.05 69 1010.6
20260831101819 75 211 1.0 4.0 0.00 0.00 0.05 69 1010.4
20260831101309 75 135 2.0 4.0 0.00 0.00 0.05 68 1010.4
20260831100759 74 224 0.0 6.0 0.00 0.00 0.05 70 1010.6
20260831100249 74 178 2.0 3.0 0.00 0.00 0.05 72 1010.8
20260831095739 73 119 1.0 6.0 0.00 0.00 0.05 74 1010.7
20260831095307 73 207 0.0 3.0 0.00 0.00 0.05 76 1010.8
20260831093659 72 212 1.0 3.0 0.00 0.00 0.05 79 1011.1
20260831093149 72 177 2.0 3.0 0.00 0.00 0.05 77 1011.0
20260831092641 70 206 2.0 4.0 0.00 0.00 0.05 79 1011.2
20260831092129 70 185 0.0 3.0 0.00 0.00 0.05 81 1011.0
20260831091621 70 201 2.0 3.0 0.00 0.00 0.05 82 1011.1
20260831090637 70 191 1.0 6.0 0.00 0.00 0.05 83 1011.1
20260831090049 69 176 2.0 3.0 0.00 0.00 0.05 84 1011.4
20260831085619 68 181 2.0 2.0 0.00 0.00 0.05 86 1011.2
20260831083459 63 187 0.0 2.0 0.00 0.00 0.05 95 1011.3
20260831082949 62 202 0.0 0.0 0.00 0.00 0.05 96 1011.2
20260831081929 62 179 1.0 1.0 0.00 0.00 0.05 96 1011.2
20260831081420 62 156 1.0 1.0 0.00 0.00 0.05 96 1011.3
20260831080947 62 200 0.0 2.0 0.01 0.00 0.05 96 1011.2
20260831080439 62 201 1.0 2.0 0.02 0.00 0.05 97 1011.1
20260831075849 61 214 0.0 1.0 0.02 0.00 0.05 97 1010.9
20260831075339 61 214 0.0 1.0 0.02 0.00 0.05 98 1010.8
20260831074829 61 173 1.0 2.0 0.03 0.00 0.05 98 1011.1
20260831074319 60 196 0.0 0.0 0.04 0.00 0.05 98 1011.3
20260831073809 60 224 1.0 2.0 0.05 0.00 0.05 98 1011.2
20260831073259 60 212 0.0 1.0 0.05 0.00 0.05 98 1011.2
20260831072749 60 214 1.0 1.0 0.05 0.00 0.05 98 1011.4
20260831071730 60 184 0.0 0.0 0.05 0.00 0.05 97 1011.6
20260831071219 60 191 0.0 1.0 0.05 0.00 0.05 97 1011.4
20260831070709 60 191 0.0 1.0 0.04 0.00 0.04 96 1011.3
20260831070159 61 194 0.0 0.0 0.03 0.00 0.03 95 1011.0
20260831065649 61 174 0.0 0.0 0.03 0.00 0.03 94 1010.7
20260831065139 61 174 0.0 0.0 0.02 0.00 0.02 93 1010.9
20260831064629 61 174 0.0 0.0 0.01 0.00 0.01 92 1011.1
20260831062549 61 174 0.0 0.0 0.00 0.00 0.00 90 1010.9
20260831061532 61 174 0.0 0.0 0.00 0.00 0.00 91 1010.7
20260831061019 61 174 0.0 0.0 0.00 0.00 0.00 91 1010.7
20260831060509 61 174 0.0 0.0 0.00 0.00 0.00 92 1010.9
20260831055450 61 174 0.0 0.0 0.00 0.00 0.00 92 1010.9
20260831055017 60 174 0.0 0.0 0.00 0.00 0.00 93 1010.9
20260831053919 60 174 0.0 0.0 0.00 0.00 0.00 94 1010.6
20260831053409 60 174 0.0 1.0 0.00 0.00 0.00 93 1010.7
20260831051838 59 174 0.0 0.0 0.00 0.00 0.00 95 1011.2
20260831051328 59 174 0.0 0.0 0.00 0.00 0.00 95 1010.8
20260831050818 59 174 0.0 0.0 0.00 0.00 0.00 95 1010.8
20260831050309 59 174 0.0 0.0 0.00 0.00 0.00 95 1010.9
20260831045758 59 174 0.0 0.0 0.00 0.00 0.00 95 1010.9
20260831045248 59 174 0.0 0.0 0.00 0.00 0.00 94 1011.0
20260831043718 59 174 0.0 0.0 0.00 0.00 0.00 94 1011.1
20260831042658 58 174 0.0 0.0 0.00 0.00 0.00 94 1011.0
20260831042148 58 174 0.0 0.0 0.00 0.00 0.00 94 1011.0
20260831041128 58 174 0.0 0.0 0.00 0.00 0.00 94 1010.9
20260831040618 58 174 0.0 0.0 0.00 0.00 0.00 94 1010.9
20260831040231 58 174 0.0 0.0 0.00 0.00 0.00 94 1011.2
20260831035636 58 174 0.0 0.0 0.00 0.00 0.00 94 1011.1
20260831035048 58 174 0.0 0.0 0.00 0.00 0.00 94 1011.2
20260831033008 58 174 0.0 0.0 0.00 0.00 0.00 94 1011.6
20260831023828 57 174 0.0 0.0 0.00 0.00 0.00 95 1011.5
20260831022808 57 174 0.0 0.0 0.00 0.00 0.00 94 1011.5
20260830234757 62 174 0.0 0.0 0.00 0.00 0.00 86 1012.2
20260830234327 62 174 0.0 0.0 0.00 0.00 0.00 86 1012.4
20260830233228 62 174 0.0 0.0 0.00 0.00 0.00 85 1012.2
20260830232207 63 174 0.0 0.0 0.00 0.00 0.00 85 1012.3
20260830231657 63 174 0.0 0.0 0.00 0.00 0.00 85 1012.3
20260830230637 63 174 0.0 0.0 0.00 0.00 0.00 84 1012.6
20260830230127 63 174 0.0 0.0 0.00 0.00 0.00 85 1012.2